Goldsboro, NC

5:36 PM EDT on May 25, 2017 (GMT -0400)
Goldsboro-Wayne Municipal

Weather History for KGWW - April, 2013

Change the Weather History Date:

Friday, April 19, 2013

  Actual Average (KGSB) Record (KGSB)
Temperature  
Mean Temperature 74 °F -  
Max Temperature 84 °F 73 °F 91 °F (2002)
Min Temperature 64 °F 51 °F 32 °F (2001)
Cooling Degree Days 9    
Growing Degree Days 24 (Base 50)    
Moisture  
Dew Point 66 °F    
Average Humidity 82    
Maximum Humidity 100    
Minimum Humidity 54    
Precipitation  
Precipitation 0.28 in - - ()
Sea Level Pressure  
Sea Level Pressure 29.92 in    
Wind  
Wind Speed 10 mph (South)    
Max Wind Speed 28 mph    
Max Gust Speed 38 mph    
Visibility 10 miles    
Events Rain    
Averages and records for this station are not official NWS values.
T = Trace of Precipitation, MM = Missing Value Source: NWS Daily Summary

Daily Weather History Graph

Daily Weather History Graph

Search for Another Location

Airport or City:

Trip Planner

Search our weather history database for the weather conditions in past years. The results will help you decide how hot, cold, wet, or windy it might be!

Date:

Astronomy

Apr. 19, 2013 Rise Set
Actual Time 6:33 AM EDT 7:48 PM EDT
Civil Twilight 6:07 AM EDT 8:14 PM EDT
Nautical Twilight 5:36 AM EDT 8:46 PM EDT
Astronomical Twilight 5:03 AM EDT 9:19 PM EDT
Moon 1:43 PM EDT (4/19) 2:34 AM EDT (4/19)
Length of Visible Light 14h 07m
Length of Day
13h 14m
First Quarter, 61% of the Moon is Illuminated
Apr 19
First Quarter
Apr 25
Full
May 2
Last Quarter
May 9
New
May 18
First Quarter

Hourly Weather History & Observations

Time (EDT) Temp. Heat Index Dew Point Humidity Pressure Visibility Wind Dir Wind Speed Gust Speed Precip Events Conditions
12:15 AM 67.3 °F - 63.5 °F 88% 30.08 in 7.0 mi SSE 8.1 mph 16.1 mph N/A Rain Rain
12:35 AM 66.2 °F - 64.8 °F 95% 30.08 in 10.0 mi SSE 5.8 mph - N/A   Overcast
12:55 AM 66.0 °F - 64.6 °F 95% 30.07 in 10.0 mi SSE 3.5 mph - N/A   Overcast
1:15 AM 65.7 °F - 64.8 °F 97% 30.06 in 10.0 mi SE 3.5 mph - N/A   Overcast
1:35 AM 65.5 °F - 64.6 °F 97% 30.05 in 10.0 mi SSE 3.5 mph - N/A   Overcast
1:55 AM 65.3 °F - 64.6 °F 98% 30.04 in 10.0 mi SE 4.6 mph - N/A   Mostly Cloudy
2:15 AM 65.3 °F - 64.8 °F 98% 30.03 in 10.0 mi SSE 4.6 mph - N/A   Mostly Cloudy
2:55 AM 64.0 °F - 63.9 °F 99% 30.01 in 10.0 mi Calm Calm - N/A   Mostly Cloudy
3:15 AM 64.4 °F - 64.4 °F 100% 30.00 in 10.0 mi SSE 4.6 mph - N/A   Mostly Cloudy
3:35 AM 64.4 °F - 64.4 °F 100% 29.99 in 10.0 mi SSE 3.5 mph - N/A   Overcast
3:55 AM 64.6 °F - 64.6 °F 100% 29.99 in 10.0 mi SSE 5.8 mph - N/A   Overcast
4:15 AM 64.9 °F - 64.9 °F 100% 29.98 in 10.0 mi SSE 3.5 mph - N/A   Overcast
4:35 AM 65.3 °F - 65.3 °F 100% 29.98 in 10.0 mi South 4.6 mph - N/A   Overcast
4:55 AM 65.3 °F - 65.3 °F 100% 29.97 in 10.0 mi SSE 4.6 mph - N/A   Overcast
5:15 AM 65.7 °F - 65.7 °F 100% 29.97 in 10.0 mi SSE 4.6 mph - N/A   Overcast
5:35 AM 66.0 °F - 66.0 °F 100% 29.97 in 10.0 mi South 4.6 mph - N/A   Overcast
5:55 AM 66.7 °F - 66.6 °F 99% 29.97 in 10.0 mi South 5.8 mph - N/A   Overcast
6:15 AM 67.3 °F - 66.7 °F 98% 29.97 in 10.0 mi South 5.8 mph - N/A   Overcast
6:35 AM 68.0 °F - 66.7 °F 96% 29.98 in 10.0 mi South 8.1 mph - N/A   Overcast
6:55 AM 68.0 °F - 66.4 °F 95% 29.98 in 10.0 mi South 6.9 mph - N/A   Overcast
7:15 AM 68.0 °F - 66.6 °F 95% 29.98 in 10.0 mi South 5.8 mph - N/A   Overcast
7:35 AM 68.4 °F - 67.1 °F 96% 29.98 in 10.0 mi South 6.9 mph - N/A   Overcast
7:55 AM 68.9 °F - 67.1 °F 94% 29.98 in 10.0 mi South 8.1 mph - N/A   Overcast
8:15 AM 69.4 °F - 67.5 °F 93% 29.98 in 10.0 mi South 8.1 mph - N/A   Overcast
8:35 AM 70.0 °F - 67.6 °F 92% 29.98 in 10.0 mi South 11.5 mph - N/A   Overcast
8:55 AM 70.7 °F - 68.0 °F 91% 29.98 in 10.0 mi South 11.5 mph 17.3 mph N/A   Overcast
9:15 AM 70.9 °F - 68.0 °F 91% 29.99 in 10.0 mi South 10.4 mph 17.3 mph N/A   Overcast
9:35 AM 72.7 °F - 68.4 °F 86% 29.98 in 10.0 mi South 16.1 mph 21.9 mph N/A   Mostly Cloudy
9:55 AM 73.8 °F - 68.0 °F 82% 29.98 in 10.0 mi SSW 13.8 mph 20.7 mph N/A   Mostly Cloudy
10:15 AM 74.5 °F - 67.8 °F 80% 29.97 in 10.0 mi SSW 12.7 mph - N/A   Mostly Cloudy
10:35 AM 77.0 °F - 67.6 °F 73% 29.97 in 10.0 mi SSW 13.8 mph 20.7 mph N/A   Mostly Cloudy
10:55 AM 78.8 °F - 67.1 °F 67% 29.97 in 10.0 mi SSW 15.0 mph 26.5 mph N/A   Mostly Cloudy
11:35 AM 79.5 °F - 65.7 °F 62% 29.95 in 10.0 mi SSW 15.0 mph 31.1 mph N/A   Mostly Cloudy
11:55 AM 79.9 °F - 66.0 °F 62% 29.95 in 10.0 mi SSW 20.7 mph 27.6 mph N/A   Scattered Clouds
12:15 PM 79.9 °F - 65.7 °F 62% 29.93 in 10.0 mi SSW 15.0 mph 25.3 mph N/A   Scattered Clouds
12:35 PM 80.6 °F 82.7 °F 66.0 °F 61% 29.93 in 10.0 mi SSW 18.4 mph 26.5 mph N/A   Scattered Clouds
12:55 PM 81.5 °F 83.4 °F 65.7 °F 58% 29.91 in 10.0 mi South 15.0 mph 26.5 mph N/A   Mostly Cloudy
1:15 PM 82.4 °F 84.2 °F 65.5 °F 56% 29.90 in 10.0 mi South 16.1 mph 32.2 mph N/A   Mostly Cloudy
1:35 PM 84.4 °F 86.6 °F 66.2 °F 54% 29.89 in 10.0 mi South 15.0 mph 26.5 mph N/A   Scattered Clouds
1:55 PM 82.6 °F 84.5 °F 65.7 °F 56% 29.88 in 10.0 mi South 11.5 mph 24.2 mph N/A   Scattered Clouds
2:15 PM 83.8 °F 86.0 °F 66.2 °F 55% 29.87 in 10.0 mi South 19.6 mph 27.6 mph N/A   Scattered Clouds
2:35 PM 82.2 °F 84.4 °F 66.2 °F 58% 29.86 in 10.0 mi South 13.8 mph 24.2 mph N/A   Scattered Clouds
2:55 PM 82.9 °F 85.2 °F 66.4 °F 57% 29.84 in 10.0 mi South 17.3 mph 25.3 mph N/A   Scattered Clouds
3:15 PM 82.8 °F 84.5 °F 65.1 °F 55% 29.83 in 10.0 mi South 21.9 mph 31.1 mph N/A   Scattered Clouds
3:35 PM 82.4 °F 84.2 °F 65.5 °F 56% 29.83 in 10.0 mi South 16.1 mph 26.5 mph N/A   Mostly Cloudy
3:55 PM 81.3 °F 83.2 °F 65.3 °F 58% 29.83 in 10.0 mi South 19.6 mph 31.1 mph N/A   Mostly Cloudy
4:15 PM 79.7 °F - 65.7 °F 62% 29.83 in 10.0 mi South 19.6 mph 28.8 mph N/A   Overcast
4:35 PM 79.0 °F - 66.0 °F 64% 29.82 in 10.0 mi South 20.7 mph 31.1 mph N/A   Overcast
4:55 PM 78.6 °F - 65.5 °F 64% 29.82 in 10.0 mi South 13.8 mph 28.8 mph N/A   Overcast
5:15 PM 79.3 °F - 65.3 °F 62% 29.82 in 10.0 mi South 19.6 mph 35.7 mph N/A   Mostly Cloudy
5:35 PM 77.9 °F - 65.7 °F 66% 29.82 in 10.0 mi South 18.4 mph 27.6 mph N/A   Overcast
5:55 PM 77.9 °F - 65.8 °F 66% 29.82 in 10.0 mi South 18.4 mph 34.5 mph N/A   Mostly Cloudy
6:15 PM 77.9 °F - 66.2 °F 67% 29.81 in 10.0 mi South 27.6 mph 38.0 mph N/A   Mostly Cloudy
6:35 PM 77.2 °F - 66.2 °F 69% 29.81 in 10.0 mi South 15.0 mph 31.1 mph N/A   Mostly Cloudy
6:55 PM 76.6 °F - 66.4 °F 70% 29.82 in 10.0 mi South 21.9 mph 33.4 mph N/A   Scattered Clouds
7:15 PM 75.9 °F - 66.7 °F 73% 29.82 in 10.0 mi SSW 21.9 mph 29.9 mph N/A   Mostly Cloudy
7:35 PM 75.4 °F - 66.7 °F 74% 29.82 in 10.0 mi South 16.1 mph 32.2 mph N/A   Scattered Clouds
7:55 PM 75.2 °F - 66.7 °F 75% 29.83 in 10.0 mi South 20.7 mph 27.6 mph N/A   Scattered Clouds
8:15 PM 74.8 °F - 66.6 °F 75% 29.84 in 10.0 mi South 18.4 mph 26.5 mph N/A   Mostly Cloudy
8:35 PM 75.2 °F - 66.7 °F 75% 29.85 in 10.0 mi SSW 19.6 mph 26.5 mph N/A   Overcast
8:55 PM 75.2 °F - 67.1 °F 76% 29.84 in 10.0 mi South 13.8 mph 24.2 mph N/A   Overcast
9:15 PM 68.7 °F - 66.6 °F 93% 29.88 in 7.0 mi SW 15.0 mph 20.7 mph 0.18 in Rain Rain
9:35 PM 67.5 °F - 66.7 °F 98% 29.87 in 10.0 mi SW 10.4 mph - 0.20 in Rain Light Rain
9:55 PM 66.4 °F - 66.2 °F 99% 29.87 in 10.0 mi SSW 9.2 mph - 0.23 in Rain Rain
10:15 PM 65.8 °F - 65.7 °F 99% 29.87 in 10.0 mi SSE 8.1 mph - 0.02 in Rain Light Rain
10:35 PM 65.7 °F - 65.7 °F 100% 29.87 in 10.0 mi South 10.4 mph - 0.02 in   Drizzle
10:55 PM 65.8 °F - 65.8 °F 100% 29.85 in 10.0 mi South 8.1 mph - 0.03 in Rain Light Rain
11:15 PM 66.2 °F - 66.0 °F 99% 29.85 in 10.0 mi South 5.8 mph - 0.01 in Rain Rain
11:35 PM 66.0 °F - 65.8 °F 99% 29.85 in 10.0 mi South 6.9 mph - 0.02 in   Light Drizzle
11:55 PM 65.8 °F - 65.8 °F 100% 29.84 in 10.0 mi South 8.1 mph - 0.02 in   Drizzle